"Pseudo-MPEC" for ZTB6273

Created 2018 Oct 13 14:18:20 UT using Find_Orb

Click here for an explanation of pseudo-MPECs

 
 Astrometry: 
     ZTB6273  C2018 10 05fkAstrometry7%q3Q8m\DOBllM,q%Rl3V9:.;Y2_EWvJ)cUuVk?_F52
     ZTB6273  C2018 10 054f+arA$rgkN[_6v#[ZWhc@x^PiX5#DA?pw`Np'sxb3i_+ltIRljLF52
     ZTB6273  C2018 10 05j(WY:l78g0b?JjiQdg:w0S(M,)YxM,B/c!$/lwYpLI_$3rd7KmmxF52
     ZTB6273  C2018 10 05SvXQ#sg'Nk6u-gwf]Jjv(##h:K5-IB^[s;yF(ZNsKI[8!!PKkLSoF52
     ZTB6273  C2018 10 05)S7CX+[Hi=u*pugQI`MAnNCDS4K`]T9NRKT],IQd@LQqPlM#3A+0F52
     ZTB6273  C2018 10 05f^ykD\y7eQb?hHvHrMglT=*0jax1lbQ*av(xv?c'[(p)XrU,_!:XF52
     ZTB6273  C2018 10 05rDhb+@NQ)Y[jVch,\+3q4]TlV0R;els^jO\(?adr$R$:^k1LOfr+F52
     ZTB6273  C2018 10 05P%oKNSpj.EjLF,g0Xl6`T(rZ18-h2p]7Dk-4SSoCY;*F%bluyS*[F52
     ZTB6273  C2018 10 10.25407 00 53 55.17 +22 56 54.6          22.3 GVNEOCPG96
     ZTB6273  C2018 10 10.25977 00 53 54.64 +22 56 53.0          21.4 GVNEOCPG96
     ZTB6273  C2018 10 10.26547 00 53 54.14 +22 56 52.0          21.3 GVNEOCPG96
     ZTB6273  C2018 10 10%dl=qb+]XBO#3\k@iredacted;`HUHoZ0a0cn:Ds$j6PRu31b4+yV06
     ZTB6273  C2018 10 10YLh@j7ul`0!@@pZC8/Zha/VrMr`3K@9::]+iOEy+FsKpSj:FyN4:V06
     ZTB6273  C2018 10 10]D3eqMxBG76atu+#@*.g$Z]1$wWW%FqcD^N;2^3=NOkJZnjdVWBjV06
     ZTB6273  C2018 10 10oTnFeKL1wiV[qKGwc[:8d_bD-,bc+T39H3$N_jK(`yK.v5ij'-OCV06
     ZTB6273  C2018 10 11Q6O9mxTZkVnJ^-:c6:J5?XfT!V5.`X9v.,vU+*jP;8yy:c5.g%(EH01
     ZTB6273  C2018 10 11E\!Lb;*!8l-hlslC4^Cg]8*Mq,(Q?p,kXHOY:BA(D3Uj0CN.11;^H01
     ZTB6273  C2018 10 11Tgj])uVT(!2*PFDLAp.\:?%h'j'`8[M]r0X(d`)QD4Qh:ro1Z+%SH01
     ZTB6273  C2018 10 110nZUHa;`ChCoRVx=p'H;oy)0KRu_]9HHs#p[1X`T'8d%/[a1vVd%H01
     ZTB6273 KC2018 10 12@i2;Ooph=;@iv8.R.6EsoTTV@Pg*/-tusee#Ikskbk,)Z]u4ENw[H21
     ZTB6273 KC2018 10 12MpQ[$a!.N,q\m_)^2tFW)l=Yca#D4MOoQ7q_?#W!]J:fbL`b*@lvH21
     ZTB6273 KC2018 10 128KV!2Zy-Oo9@fx_C/;3UFu\,^f'*?/r@u,sunj-v1_\ToQ5\,[2hH21
     ZTB6273 HC2018 10 12BJ.#T$BcQ8]i3QlW8hhx$wGU2]Go^i?GlMKhj^(:N;E@s^b;6g87204
     ZTB6273 KC2018 10 12B$t8Ljw;cDb7oP'Li0fq%ekx#Sn9@,*=1%U]I,R2PnIFE+Lh;l_@204
     ZTB6273 IC2018 10 12WPs[]gNXMYu88*Oa7(sgvwgu(m=w_qq,D,D1Z9mQQ+5'FL/tn_q5L01
     ZTB6273 IC2018 10 125S)R*B/!9oFE91ZoJ'F3\]3bl-0+XFt1)M;%6qs+=y(RnSZo/GQl204
     ZTB6273 KC2018 10 12Zm8h$wF$r2aE'f[x_@oXsx0h+D]:kh`L[xn9u:=m$l.E',*VuTM=L01
     ZTB6273 KC2018 10 129KTS=BmCXk7K@Qih2G4@lQr\mmjt1)Fe6=b)`tNwEo(h7:jNEOCPL01

Station data:
(204) Schiaparelli Observatory  (N45.867933 E8.770800)  Italy.  Observer L.
   Buzzi. 0.60-m f/4.64 Newtonian + CCD.
(F52) Pan-STARRS 2, Haleakala  (N20.707384 W156.255910)  US/Hawaii.
(G96) Mt. Lemmon Survey  (N32.442754 W110.788720)  US/Arizona.  Observers B.
   M. Africano, E. J. Christensen, D. C. Fuls, A. R. Gibbs, A. D. Grauer, J.
   A. Johnson, R. A. Kowalski, S. M. Larson, G. J. Leonard, R. L. Seaman, F.
   C. Shelly. 1.5-m reflector + 10K CCD.
(H01) Magdalena Ridge Observatory, Socorro  (N33.984833 W107.189333)  US/New
   Mexico.  Observers W. H. Ryan, E. V. Ryan. Measurer W. H. Ryan. 2.4-m
   f/8.9 reflector + CCD.
(H21) Astronomical Research Observatory, Westfield  (N39.483057 W87.968270)
   US/Illinois. 0.76-m f/3.0 astrograph + CCD.
(L01) Višnjan Observatory, Tičan  (N45.290900 E13.749300)  Croatia.  Observer
   K. Korlević. 1.0-m f/2.9 reflector + CCD.
(V06) Catalina Sky Survey-Kuiper  (N32.416847 W110.732550)  US/Arizona.
   Observers B. M. Africano, E. J. Christensen, D. C. Fuls, A. R. Gibbs, A.
   D. Grauer, J. A. Johnson, R. A. Kowalski, S. M. Larson, G. J. Leonard, R.
   L. Seaman, F. C. Shelly. 1.55-m reflector + CCD.

Orbital elements:  ZTB6273
   Perihelion 2018 Jun 7.671679 +/- 0.136 TT = 16:07:13 (JD 2458277.171679)
Epoch 2018 Oct 12.0 TT = JDT 2458403.5   Earth MOID: 0.2258   Ma: 0.0611
M  38.08574 +/- 0.09                (J2000 ecliptic)          AutoNEOCP
n   0.30148226 +/- 0.000876         Peri.  313.11638 +/- 0.08
a   2.20273137 +/- 0.00426          Node   339.19905 +/- 0.038
e   0.4543379 +/- 0.00122           Incl.   10.38010 +/- 0.020
P   3.27                   H 20.8   G  0.15   U  8.0  
q 1.20194690 +/- 0.000459    Q 3.20351584 +/- 0.00882
From 28 observations 2018 Oct. 5-12; mean residual 0".20
Residuals in arcseconds: 
181005 F52  .06-  .18+    181010 G96  .42+  .23-    181012 H21  .34+  .02+    
181005 F52  .11-  .11-    181010 V06  .09-  .14+    181012 H21  .03+  .15+    
181005 F52  .22+  .24+    181010 V06  .07+  .13+    181012 204  .14+  .12+    
181005 F52  .04+  .07+    181010 V06  .20-  .12+    181012 204  .30-  .36+    
181005 F52  .01+  .07-    181010 V06  .21-  .11+    181012 L01  .24-  .14-    
181005 F52  .24-  .21-    181011 H01  .10-  .02+    181012 204  .46-  .03-    
181005 F52  .17+  .10-    181011 H01  .12+  .07+    181012 L01  .06+  .10-    
181005 F52  .00   .04+    181011 H01  .03-  .26+    181012 L01  .40+  .33-    
181010 G96  .16-  .08-    181011 H01  .11-  .08+    
181010 G96  .08-  .46-    181012 H21  .30+  .13-    

Ephemerides (geocentric):
Date (UTC) HH   RA              Dec         delta   r     elong  mag " sig PA
---- -- -- --  -------------   -----------  ------ ------ -----  --- ---- ---
2018 10 13 14  00 49 07.128   +22 43 05.58  .74295 1.7240 164.0 22.0  .16 165
2018 10 13 15  00 49 03.661   +22 42 54.04  .74321 1.7243 164.0 22.0  .16 165
2018 10 13 16  00 49 00.196   +22 42 42.47  .74348 1.7245 164.0 22.0  .17 165
2018 10 13 17  00 48 56.736   +22 42 30.88  .74374 1.7247 164.0 22.0  .17 165
2018 10 13 18  00 48 53.279   +22 42 19.26  .74401 1.7250 163.9 22.0  .18 165
2018 10 13 19  00 48 49.825   +22 42 07.61  .74427 1.7252 163.9 22.0  .19 165
2018 10 13 20  00 48 46.375   +22 41 55.94  .74454 1.7255 163.9 22.0  .19 165
2018 10 13 21  00 48 42.929   +22 41 44.25  .74481 1.7257 163.9 22.0  .20 164
2018 10 13 22  00 48 39.487   +22 41 32.52  .74507 1.7260 163.9 22.0  .20 164
2018 10 13 23  00 48 36.047   +22 41 20.78  .74534 1.7262 163.9 22.0  .21 164
2018 10 14 00  00 48 32.612   +22 41 09.00  .74561 1.7265 163.9 22.0  .21 164
2018 10 14 01  00 48 29.180   +22 40 57.21  .74588 1.7267 163.9 22.0  .22 164
2018 10 14 02  00 48 25.752   +22 40 45.39  .74614 1.7270 163.9 22.0  .22 164
2018 10 14 03  00 48 22.328   +22 40 33.54  .74641 1.7272 163.9 22.0  .23 164
2018 10 14 04  00 48 18.907   +22 40 21.67  .74668 1.7275 163.9 22.0  .24 164
2018 10 14 05  00 48 15.490   +22 40 09.77  .74695 1.7277 163.9 22.0  .24 163
2018 10 14 06  00 48 12.076   +22 39 57.85  .74722 1.7279 163.9 22.0  .25 163
2018 10 14 07  00 48 08.666   +22 39 45.91  .74749 1.7282 163.9 22.0  .25 163
2018 10 14 08  00 48 05.260   +22 39 33.94  .74776 1.7284 163.9 22.0  .26 163
2018 10 14 09  00 48 01.858   +22 39 21.94  .74803 1.7287 163.9 22.0  .27 163
2018 10 14 10  00 47 58.459   +22 39 09.92  .74830 1.7289 163.9 22.0  .27 163
2018 10 14 11  00 47 55.064   +22 38 57.88  .74857 1.7292 163.9 22.0  .28 163
2018 10 14 12  00 47 51.672   +22 38 45.81  .74885 1.7294 163.9 22.0  .28 163
2018 10 14 13  00 47 48.285   +22 38 33.72  .74912 1.7297 163.9 22.0  .29 163
2018 10 14 14  00 47 44.901   +22 38 21.61  .74939 1.7299 163.9 22.0  .30 162
2018 10 14 15  00 47 41.521   +22 38 09.47  .74966 1.7302 163.9 22.0  .30 162
2018 10 14 16  00 47 38.144   +22 37 57.31  .74994 1.7304 163.9 22.0  .31 162
2018 10 14 17  00 47 34.772   +22 37 45.13  .75021 1.7307 163.9 22.0  .32 162
2018 10 14 18  00 47 31.403   +22 37 32.92  .75049 1.7309 163.9 22.0  .32 162
2018 10 14 19  00 47 28.038   +22 37 20.68  .75076 1.7311 163.8 22.0  .33 162
2018 10 14 20  00 47 24.676   +22 37 08.43  .75104 1.7314 163.8 22.0  .34 162
2018 10 14 21  00 47 21.319   +22 36 56.15  .75131 1.7316 163.8 22.0  .34 162
2018 10 14 22  00 47 17.965   +22 36 43.85  .75159 1.7319 163.8 22.0  .35 162
2018 10 14 23  00 47 14.615   +22 36 31.52  .75186 1.7321 163.8 22.0  .36 161
2018 10 15 00  00 47 11.268   +22 36 19.17  .75214 1.7324 163.8 22.0  .36 161
2018 10 15 01  00 47 07.926   +22 36 06.80  .75242 1.7326 163.8 22.0  .37 161
2018 10 15 02  00 47 04.587   +22 35 54.41  .75269 1.7329 163.8 22.0  .38 161
2018 10 15 03  00 47 01.253   +22 35 41.99  .75297 1.7331 163.8 22.0  .38 161
2018 10 15 04  00 46 57.922   +22 35 29.55  .75325 1.7334 163.8 22.0  .39 161
2018 10 15 05  00 46 54.594   +22 35 17.09  .75353 1.7336 163.8 22.0  .40 161
2018 10 15 06  00 46 51.271   +22 35 04.61  .75381 1.7339 163.8 22.0  .40 161
2018 10 15 07  00 46 47.952   +22 34 52.10  .75408 1.7341 163.8 22.0  .41 161
2018 10 15 08  00 46 44.636   +22 34 39.57  .75436 1.7343 163.8 22.0  .42 160
2018 10 15 09  00 46 41.324   +22 34 27.02  .75464 1.7346 163.7 22.0  .42 160
2018 10 15 10  00 46 38.016   +22 34 14.45  .75492 1.7348 163.7 22.0  .43 160
2018 10 15 11  00 46 34.712   +22 34 01.85  .75520 1.7351 163.7 22.0  .44 160
2018 10 15 12  00 46 31.412   +22 33 49.23  .75548 1.7353 163.7 22.0  .45 160
2018 10 15 13  00 46 28.116   +22 33 36.59  .75577 1.7356 163.7 22.0  .45 160